📊 Raw Sensor Data
Showing records 47026 to 47050 of 85,080 total
| ID | Distance (ft) | Battery V | Battery A | Int Temp (°F) | Int Humid (%) | Ext Temp (°F) | Solar V | RSSI | SNR | Time Stamp |
|---|---|---|---|---|---|---|---|---|---|---|
| 38067 | -- | 4.00 | 56 | 60 | 41 | 57 | 4.50 | -86 | 7 | 04/17/2025 10:00 AM |
| 38066 | -- | 3.96 | 57 | 60 | 40 | 57 | 4.50 | -89 | 8 | 04/17/2025 09:46 AM |
| 38065 | -- | 4.08 | 75 | 60 | 40 | 59 | 4.50 | -90 | 8 | 04/17/2025 09:30 AM |
| 38064 | -- | 4.02 | 99 | 60 | 39 | 58 | 4.50 | -91 | 7 | 04/17/2025 09:15 AM |
| 38063 | -- | 3.99 | 82 | 59 | 39 | 58 | 4.50 | -90 | 8 | 04/17/2025 09:01 AM |
| 38062 | -- | 3.95 | 50 | 58 | 39 | 58 | 4.50 | -97 | 7 | 04/17/2025 08:45 AM |
| 38061 | -- | 3.91 | 49 | 56 | 40 | 56 | 4.50 | -91 | 6 | 04/17/2025 08:30 AM |
| 38060 | -- | 3.87 | 36 | 55 | 40 | 55 | 4.50 | -86 | 7 | 04/17/2025 08:15 AM |
| 38059 | -- | 3.86 | 0 | 55 | 40 | 55 | 4.50 | -94 | 6 | 04/17/2025 08:01 AM |
| 38058 | -- | 3.87 | 0 | 54 | 40 | 54 | 4.50 | -91 | 8 | 04/17/2025 07:45 AM |
| 38057 | -- | 3.85 | 9 | 53 | 40 | 54 | 4.50 | -89 | 7 | 04/17/2025 07:30 AM |
| 38056 | -- | 3.79 | 0 | 53 | 40 | 53 | 4.50 | -91 | 8 | 04/17/2025 07:15 AM |
| 38055 | -- | 3.79 | 0 | 53 | 40 | 53 | 4.50 | -94 | 5 | 04/17/2025 07:00 AM |
| 38054 | -- | 3.77 | -10 | 52 | 41 | 53 | 4.10 | -86 | 7 | 04/17/2025 06:45 AM |
| 38053 | -- | 3.78 | -9 | 52 | 41 | 52 | 1.50 | -93 | 6 | 04/17/2025 06:30 AM |
| 38052 | -- | 3.83 | -5 | 51 | 41 | 52 | 0.00 | -95 | 7 | 04/17/2025 06:01 AM |
| 38051 | -- | 3.79 | -5 | 51 | 41 | 52 | 0.00 | -85 | 7 | 04/17/2025 05:45 AM |
| 38050 | -- | 3.79 | -5 | 51 | 41 | 52 | 0.00 | -91 | 6 | 04/17/2025 05:30 AM |
| 38049 | -- | 3.79 | -5 | 52 | 41 | 52 | 0.00 | -89 | 9 | 04/17/2025 05:15 AM |
| 38048 | -- | 3.79 | -5 | 52 | 41 | 53 | 0.00 | -89 | 7 | 04/17/2025 05:00 AM |
| 38047 | -- | 3.84 | -5 | 52 | 41 | 53 | 0.00 | -89 | 5 | 04/17/2025 04:45 AM |
| 38046 | -- | 3.79 | -5 | 52 | 41 | 53 | 0.10 | -90 | 8 | 04/17/2025 04:30 AM |
| 38045 | -- | 3.79 | -5 | 53 | 41 | 53 | 0.00 | -86 | 7 | 04/17/2025 04:15 AM |
| 38044 | -- | 3.79 | -5 | 52 | 41 | 53 | 0.00 | -91 | 7 | 04/17/2025 04:00 AM |
| 38043 | -- | 3.79 | -5 | 52 | 41 | 53 | 0.00 | -92 | 6 | 04/17/2025 03:45 AM |